Погода в Кривых Озерах

Россия / Архангельская область     64°53′00″N   43°14′16″E
темп.,
°C
ветер,
м/с
пор.,
м/с
влажн.,
%
обл.,
%
осадки,
мм/ч
давл.,
гПа
погр.,
м
10 августа, ср
ср1000:00+10зюз22855 0.0 102431
03:00+9з22925 0.0 102442
06:00+12з137828 0.0 1024133
09:00+17з2347100 0.0 1023621
12:00+21зюз2339100 0.0 10221921
15:00+22юз243661 0.0 10212286
18:00+19зюз135543 0.0 1020154
21:00+14зюз22714 0.0 102022
11 августа, чт
чт1100:00+12юз227511 0.0 101936
03:00+11ююз21174100 0.0 1018216
06:00+14юз3106934 0.0 1017330
09:00+19юз51050100 0.0 1015684
12:00+19юз41060100 0.0 1014873
15:00+22зюз51055100 0.0 10121564
18:00+21юз61258100 0.0 10101581
21:00+20юз61464100 0.0 10081357
12 августа, пт
пт1200:00+16з51094100 8.4 1008687
03:00+13зюз41196100 8.4 1009530
06:00+14з41092100 0.2 1009506
09:00+15з598287 0.4 1010768
12:00+17з696241 0.2 10101556
15:00+17з5852100 0.4 10112021
18:00+16з5105185 0.0 10121724
21:00+12зсз4106413 0.0 1014437
13 августа, сб
сб1300:00+10з412775 0.0 1015399
03:00+9зюз311835 0.0 1016348
06:00+11з410782 0.0 1018493
09:00+15зсз58525 0.0 10191416
12:00+17зсз584058 0.0 10192250
15:00+18зсз573718 0.0 10202257
18:00+17зсз354613 0.0 10211224
21:00+10зсз117087 0.0 102113
14 августа, вс
вс1400:00+8зюз11765 0.0 102110
03:00+7ююз22775 0.0 102124
06:00+10ю266770 0.0 1020151
09:00+16ююз3651100 0.0 1019505
12:00+20юз474632 0.0 10171301
15:00+22зюз463978 0.0 10161735
18:00+21юз365017 0.0 1015353
21:00+17з2369100 0.0 101550